[TLELIST] Archives

 

Current TLEs

October 19th 2007 PDT

HST 1 20580U 90037B 07290.87768244 .00000327 00000-0 12492-4 0 9846 2 20580 028.4667 110.0459 0003448 315.7857 044.2454 15.00290443758400 ISS (ZARYA) 1 25544U 98067A 07292.27783684 .00013847 00000-0 92064-4 0 1894 2 25544 051.6377 183.9298 0002884 106.7874 352.7515 15.75773025510350 CXO 1 25867U 99040B 07290.66666667 .00000449 00000-0 10000-3 0 1248 2 25867 062.5320 086.5849 6411320 282.0879 185.0084 00.37802703 2717 ____________________________________________________________________ These 2-Line ...Continue Reading

Current TLEs

October 18th 2007 PDT

HST 1 20580U 90037B 07290.87768244 .00000327 00000-0 12492-4 0 9846 2 20580 028.4667 110.0459 0003448 315.7857 044.2454 15.00290443758400 ISS (ZARYA) 1 25544U 98067A 07291.32747807 .00015287 00000-0 10129-3 0 1819 2 25544 051.6380 188.8234 0002940 104.9996 359.7826 15.75751495510209 CXO 1 25867U 99040B 07290.66666667 .00000449 00000-0 10000-3 0 1248 2 25867 062.5320 086.5849 6411320 282.0879 185.0084 00.37802703 2717 ____________________________________________________________________ These 2-Line ...Continue Reading

Current TLEs

October 17th 2007 PDT

HST 1 20580U 90037B 07289.81331381 .00000330 00000-0 12764-4 0 9831 2 20580 028.4667 116.9868 0003490 304.5434 055.4820 15.00290109758245 ISS (ZARYA) 1 25544U 98067A 07290.31185382 .00015399 00000-0 10213-3 0 1729 2 25544 051.6379 194.0516 0003111 102.4150 357.2007 15.75719924510042 CXO 1 25867U 99040B 07290.66666667 .00000449 00000-0 10000-3 0 1248 2 25867 062.5320 086.5849 6411320 282.0879 185.0084 00.37802703 2717 ____________________________________________________________________ These 2-Line ...Continue Reading

Current TLEs

October 16th 2007 PDT

HST 1 20580U 90037B 07287.81762186 +.00000326 +00000-0 +12444-4 0 09953 2 20580 028.4670 129.9975 0003542 281.4706 078.5480 15.00289461757948 ISS (ZARYA) 1 25544U 98067A 07289.36145954 .00014209 00000-0 94714-4 0 1664 2 25544 051.6376 198.9444 0003222 097.9424 006.8731 15.75684779509898 CXO 1 25867U 99040B 07288.04166667 .00000399 00000-0 10000-3 0 1235 2 25867 062.5215 086.6366 6406157 282.1308 187.6339 00.37805042 2704 ____________________________________________________________________ These 2-Line ...Continue Reading

Current TLEs

October 15th 2007 PDT

HST 1 20580U 90037B 07287.95066791 .00000339 00000-0 13434-4 0 9827 2 20580 028.4669 129.1292 0003492 282.8791 077.1409 15.00289613757960 ISS (ZARYA) 1 25544U 98067A 07288.34580058 .00013642 00000-0 91234-4 0 1607 2 25544 051.6370 204.1720 0003176 091.9023 007.7786 15.75652167509735 CXO 1 25867U 99040B 07288.04166667 .00000399 00000-0 10000-3 0 1235 2 25867 062.5215 086.6366 6406157 282.1308 187.6339 00.37805042 2704 ____________________________________________________________________ These 2-Line ...Continue Reading

Current TLEs

October 14th 2007 PDT

HST 1 20580U 90037B 07286.88629932 .00000331 00000-0 12779-4 0 9812 2 20580 028.4671 136.0710 0003604 271.1989 088.8190 15.00289208757809 ISS (ZARYA) 1 25544U 98067A 07287.33007102 .00012996 00000-0 87237-4 0 1530 2 25544 051.6368 209.3996 0003164 091.9873 002.2815 15.75621021509574 CXO 1 25867U 99040B 07288.04166667 .00000399 00000-0 10000-3 0 1235 2 25867 062.5215 086.6366 6406157 282.1308 187.6339 00.37805042 2704 ____________________________________________________________________ These 2-Line ...Continue Reading

Current TLEs

October 13th 2007 PDT

HST 1 20580U 90037B 07285.82193034 .00000340 00000-0 13506-4 0 9802 2 20580 028.4674 143.0113 0003633 259.6836 100.3334 15.00288961757648 ISS (ZARYA) 1 25544U 98067A 07286.13361633 .00010950 00000-0 74300-4 0 1499 2 25544 051.6353 215.5577 0003155 094.1808 048.9913 15.75581579509383 CXO 1 25867U 99040B 07284.00000000 .00000345 00000-0 10000-3 0 1225 2 25867 062.4945 086.6960 6397906 282.2256 357.3549 00.37805065 2688 ____________________________________________________________________ These 2-Line ...Continue Reading

Current TLEs

October 12th 2007 PDT

HST 1 20580U 90037B 07283.95928547 +.00000360 +00000-0 +15042-4 0 00001 2 20580 028.4675 155.1549 0003640 239.7889 120.2338 15.00288420757365 ISS (ZARYA) 1 25544U 98067A 07285.36390166 .00009830 00000-0 67198-4 0 1465 2 25544 051.6354 219.5217 0003388 086.2545 008.0812 15.75558788509265 CXO 1 25867U 99040B 07284.00000000 .00000345 00000-0 10000-3 0 1225 2 25867 062.4945 086.6960 6397906 282.2256 357.3549 00.37805065 2688 ____________________________________________________________________ These 2-Line ...Continue Reading

Current TLEs

October 11th 2007 PDT

HST 1 20580U 90037B 07284.02580849 .00000358 00000-0 14944-4 0 9791 2 20580 028.4675 154.7212 0003640 240.4259 119.5965 15.00288438757374 ISS (ZARYA) 1 25544U 98067A 07284.34791824 .00009008 00000-0 61994-4 0 1395 2 25544 051.6346 224.7504 0003206 086.5091 001.2980 15.75534512509104 CXO 1 25867U 99040B 07284.00000000 .00000345 00000-0 10000-3 0 1225 2 25867 062.4945 086.6960 6397906 282.2256 357.3549 00.37805065 2688 ____________________________________________________________________ These 2-Line ...Continue Reading

Current TLEs

October 10th 2007 PDT

HST 1 20580U 90037B 07282.89491633 .00000351 00000-0 14356-4 0 9785 2 20580 028.4677 162.0969 0003914 230.0716 129.9522 15.00287940757207 ISS (ZARYA) 1 25544U 98067A 07283.46290631 .00008955 00000-0 61702-4 0 1349 2 25544 051.6343 229.3059 0003147 085.1621 019.5605 15.75517147508969 CXO 1 25867U 99040B 07284.00000000 .00000345 00000-0 10000-3 0 1225 2 25867 062.4945 086.6960 6397906 282.2256 357.3549 00.37805065 2688 ____________________________________________________________________ These 2-Line ...Continue Reading
  • This mailing list is a public mailing list - anyone may join or leave, at any time.
  • This mailing list is announce-only.

International Space Station (ISS) / Hubble Space Telescope (HST) / Chandra X-Ray Observatory Orbital Data via EMAIL

Privacy Policy:

Private list